Find Kuiper-00127

NORAD ID: 65956 Int'l Des: 2025-228 Owner: KUIP Country: US Constellation: amazon-leo operational
LEOCIRCULAR

現在のビュー

3D地球を読み込み中...

About Kuiper-00127

Kuiper-00127 (NORAD 65956) is a amazon-leo constellation satellite launched Oct 14, 2025 by KUIP of US. It operates in LEO, CIRCULAR orbit with a mass of 490.00 kg.

次回通過

Passes for default location (London). Set your location on the main map for personalized predictions.

高度履歴

Loading altitude history...

軌道要素

1 65956U 25228K 26263.27378079 -.00000869 00000-0 -85075-4 0 9996
2 65956 51.9015 212.6129 0000539 64.7127 295.3891 14.79926478 52158
Epoch: Sep 20, 2026 • Age: 19 hours

現在のステータス

高度 630.0 km
遠地点 / 近地点 N/A
速度 7.54 km/s
衛星直下点 3.70°N, 8.55°E
打ち上げ日 Oct 14, 2025
運用期間 0.9 years
タイプ internet

技術仕様

分類 Payload
質量 490.00 kg
形状 ? Box + 2 pan
製造者 KUIP
バスタイプ Kuiper
フェーズステータス In Orbit
所有者/国 KUIP/US

Most Searched